WESTFORD NEEDLES, 2531

Orbit data source: Space-Track

WESTFORD NEEDLES, 2531 is space debris in LEO originally from a launch on Thu, 09 May 1963 UTC launched from the Air Force Western Test Range (AFWTR). Debris objects in space refer to the collection of defunct objects orbiting the Earth. Examples of debris include non-operational satellites, rocket bodies, and fragments generated from explosions, collisions, or faulty payload assembly.

Loading next visibility...
WESTFORD NEEDLES details
Identifier
2531, 1963-014AK
Orbit
LEO
Last TLE update7 months ago
Origin
Flag of USUSAF SSD (US)
ManufacturerUnknown
MissionSpacecraft
Bus & MotorUnknown
MassUnknown
Launch date (UTC)
1963-05-09 (62 years ago)
Launch vehicleUnknown
Launch site
Air Force Western Test Range (AFWTR)
Object type
Payload
Rocket body
Debris
Shape & HBRUnknown
Radar Cross SectionMedium (>0.1 m² and <1 m²)

Expand to show TLE details & history

TLE from 7 months ago
0 WESTFORD NEEDLES
1  2531U 63014AK  24152.18667443  .00000001  00000-0 -10627-2 0  9998
2  2531  87.3002 233.7703 0023550 107.9316 252.4109  8.67338680362575
Epoch: 2024-05-31T04:28Z
Definitive object data (Epoch: 2024-05-31T04:28:48.67Z)
Latitude-0.00008°
Longitude-82.60187°
Altitude3,637.583 km
Speed6.307 km/s
True Right ascension15h 35m 04s
True Declination0° 00' 00"
Sunlit
Object was in full shadow at TLE epoch
Visualization TLE readout
Latitude-70.14402°
Longitude85.05955°
Altitude3,631.182 km
Speed6.319 km/s
Apparent Right ascension00h 50m 40s
Apparent Declination-60° 32' 50"
Sunlit
Object is in daylight
Visualization observer readout
Local Sidereal Time11:32:28
Azimuth203.942° SW
Elevation-66.083°
Doppler factor1
Orbital elements
Apogee altitude3,649.601 km
Perigee altitude3,602.481 km
Semi-major axis10,004.178 km
Eccentricity0.002355
Inclination87.3002°
RAAN233.7703°
Arg. of periapsis107.9316°
True anomaly252.15388°
Mean anomaly252.4109°
Eccentric anomaly252.28237°
Mean motion2.16906 °/min
BSTAR-0.0010627
Orbital period165.97 mins
Loading maneuver chart data...

WESTFORD NEEDLES Visibility forecast

Observer location: undefined°, undefined

Span
Click to sort rows by Start time (UTC) header in descending order
Start Az.
Max El. time (UTC)
Max El. Az.
Max El.
End time (UTC)
End Az.
33 mins2024-12-21 13:24:39.812Z135.158° SSE2024-12-21 13:41:39.812Z68.701° E34.116°2024-12-21 13:57:39.812Z9.408° NNE
36 mins2024-12-21 16:08:39.812Z202.102° SSW2024-12-21 16:25:39.812Z274.407° WNW40.403°2024-12-21 16:44:39.812Z358.32° N
7 mins2024-12-21 19:17:39.812Z307.878° NW2024-12-21 19:20:39.812Z317.812° NNW10.847°2024-12-21 19:24:39.812Z330.987° NNW
34 mins2024-12-22 01:12:39.812Z5.74° NNE2024-12-22 01:29:39.812Z77.873° E35.903°2024-12-22 01:46:39.812Z146.284° SSE
33 mins2024-12-22 03:59:39.812Z350.996° N2024-12-22 04:15:39.812Z282.453° WNW38.917°2024-12-22 04:32:39.812Z213.232° SW
14 mins2024-12-22 11:47:39.812Z74.363° E2024-12-22 11:54:39.812Z50.61° ENE14.094°2024-12-22 12:01:39.812Z26.996° NE
|